Back to catalog

HENAN-1

AliveSciencePO
NORAD 53446·PAYLOAD·🇨🇳 China
This satellite name has not been confirmed by official sources yet.

Launched Aug 10, 2022 from Taiyuan Satellite Launch Center

Loading…

Next Passes (next 24 hours)

TLE

FreshSource: Space-Track

Epoch: Sep 14, 2026, 15:26 UTC

1 53446U 22098C   26257.64323713  .00148036  00000-0  65892-3 0  9999
2 53446  97.5737  35.9497 0000978 269.0620  91.0537 15.83911032228727

Track HENAN-1 in real time with AllMySat

Download on the App Store